Location: Haliburton Scout Reserve
(45.0900°N, 78.3200°W)
Time: 10:09:54
(UTC-04:00)

S-56A Canister/Altair - Pass Details

Date: 02 February 2023
Orbit: 638 x 2493 km, 38.9° (Epoch: 25 March)

Event Time Altitude Azimuth Distance (km) Brightness Sun altitude
Rises 13:10:59 0° 253° (WSW) 3,066 11.0 27.4°
Reaches altitude 10° 13:13:08 10° 248° (WSW) 2,255 10.5 27.3°
Maximum altitude 13:18:06 48° 174° (S) 1,166 9.9 27.1°
Drops below altitude 10° 13:25:04 10° 102° (ESE) 3,153 10.7 26.8°
Sets 13:28:36 0° 98° (E) 4,431 11.3 26.6°
